Regional Weather Roundup
Issued by NWS Goodland, KS

Home | Current Version | Previous Version | Text Only | Print | Product List | Glossary On
Versions: 1 2 3 4 5 6 7 8 9 10 11 12 13 14 15 16 17 18 19 20 21 22 23 24 25 26 27 28 29 30 31 32 33 34 35 36 37 38 39 40 41 42 43 44 45 46 47 48 49 50
000
ASUS43 KGLD 261208
RWRGLD

GOODLAND FORECAST AREA HOURLY WEATHER ROUNDUP
NATIONAL WEATHER SERVICE GOODLAND KS
600 AM MDT SAT JUL 26 2014

...OFFICIAL OBSERVATIONS...

CITY           SKY/WX    TMP DP  RH WIND       PRES   REMARKS
GOODLAND KS    PTCLDY    69  62  78 SW3       29.97S
HILL CITY KS   MOCLDY    71  66  84 CALM      29.87R
IMPERIAL NEB   CLEAR     67  60  78 W8        29.92S
MCCOOK NEB     CLEAR     67  65  93 W8        29.88S
AKRON CO       CLEAR     69  52  54 W14       30.04R
BURLINGTON CO  PTCLDY    67  60  78 W7        30.01R
LIMON CO       CLEAR     53  51  93 CALM      30.12R
$$

...UNOFFICIAL OBSERVATIONS...

CITY           SKY/WX    TMP DP  RH WIND       PRES   REMARKS
COLBY KS       CLEAR     66  64  94 W8        29.95S
GOVE KS          N/A     69  32  25 MISG        N/A
LENORA KS        N/A     70  32  24 MISG        N/A
NORTON KS      CLEAR     68  63  83 W7        29.86R
OBERLIN KS     FAIR      66  63  88 S5        29.89
SHARON SPRINGS   N/A     65  62  91 CALM        N/A
ST FRANCIS KS  PTCLDY    68  57  68 SE3       29.96
WAKEENEY KS      N/A     73  64  73 MISG        N/A
TRENTON NEB      N/A     70  32  24 CALM        N/A
KIT CARSON CO    N/A     64  60  87 CALM        N/A
WRAY CO          N/A     66  57  72 W6        29.98R
YUMA CO          N/A     63  53  71 NW5         N/A
$$


USA.gov is the U.S. government's official web portal to all federal, state and local government web resources and services.